Regional Weather Roundup
Issued by NWS

Home | Current Version | Previous Version | Text Only | Print | Product List | Glossary On
Versions: 1 2 3 4 5 6 7 8 9 10 11 12 13 14 15 16 17 18 19 20 21 22 23 24 25 26 27
000
ASUS42 KKEY 051510
RWRKEY

FLORIDA REGIONAL WEATHER ROUNDUP FOR THE FLORIDA KEYS
NATIONAL WEATHER SERVICE KEY WEST FLORIDA
1000 AM EST MON DEC 05 2016

...SOUTH FLORIDA AND THE KEYS...

CITY           SKY/WX    TMP DP  RH WIND       PRES   REMARKS
FORT MYERS     MOSUNNY   81  72  74 S10       30.01R
SW REGIONAL AP MOSUNNY   80  70  71 S15       30.02R
NAPLES         SUNNY     80  72  76 SE16      30.00S
MIAMI          PTSUNNY   79  72  79 SE13G21   30.04S
WEST KENDALL   MOSUNNY   83  72  69 SE14G21   30.04R
HOMESTEAD      NOT AVBL
MARATHON       SUNNY     83  72  69 SE8G17    30.03R
BOCA CHICA NAS MOSUNNY   81  73  76 SE14      30.01S
KEY WEST INTL  SUNNY     81  75  82 SE14      30.02R

...INTERNATIONAL WEATHER...

CITY           SKY/WX    TMP DP  RH WIND       PRES   REMARKS
NASSAU BAHAMAS PTSUNNY   73  70  88 E9        30.08R
CANCUN MEXICO  MOSUNNY   84  77  79 SE17      29.90R HX  94
COZUMEL MEXICO MOSUNNY   84  77  79 S10       29.89R HX  94

ADJACENT COASTAL WATERS...

STATION/POSITION TIME  SKY/WX   TEMP    WIND        PRES    WAVE
                                AIR SEA DIR/SP/G            HT/PER
                 (UTC)          (F)     (DEG/KT/KT) (MB)    (FT/S)
PULASKI SHOAL LI 1500            80     170/ 16/ 18 1016.0R
SAND KEY         1450            79     160/ 16/ 18 1016.5R
LONG KEY         1400            79 77  140/ 14/ 15 1017.2R
FOWEY ROCKS      1400            78 78  130/ 22/ 24 1017.5R

$$




USA.gov is the U.S. government's official web portal to all federal, state and local government web resources and services.